Probability
6 10 16 18 17 17 19 19 17 16 16 16 14 10 5 3 3 3 1 1 2 2 1 0 0 0 0 0 0 0 0 0 0 0 0 0 0 1 2 2 1 0 0
9 12 17 18 17 17 18 18 17 16 16 15 14 10 6 4 3 3 2 1 1 2 2 1 0 0 0 0 0 0 0 0 0 0 0 0 0 1 1 1 0 0 0
11 13 16 17 17 17 18 17 16 16 16 14 12 9 6 4 3 3 3 2 1 1 2 2 1 1 1 1 0 0 0 0 0 1 1 1 0 0 0 0 0 0 0
12 13 14 15 16 16 17 16 16 16 15 13 10 7 5 3 3 3 3 3 3 1 1 1 1 2 2 2 1 1 1 1 1 2 2 2 1 0 0 0 0 0 0
11 12 12 14 16 16 16 16 15 14 13 11 8 5 4 3 3 3 3 4 4 2 0 0 1 1 2 2 1 1 1 2 2 2 2 2 1 1 1 2 1 0 0
9 9 10 13 15 16 15 14 13 12 12 9 6 4 3 3 3 3 3 3 3 1 0 0 1 1 1 2 1 0 1 2 2 1 1 1 1 1 2 2 1 0 0
6 7 9 12 14 15 14 13 12 11 10 8 5 3 3 3 3 3 3 3 3 1 1 1 1 2 3 3 2 1 1 2 1 0 0 0 0 1 2 2 1 0 0
5 6 8 11 13 14 14 13 11 9 8 7 5 3 3 3 3 3 3 3 3 3 2 1 2 4 5 4 3 2 3 3 1 0 0 0 0 1 3 4 3 1 0
5 5 7 8 10 12 13 12 10 8 8 6 4 3 3 3 3 4 4 4 4 4 4 3 4 5 6 4 3 2 4 4 2 0 1 1 1 2 5 6 5 1 0
5 5 5 6 7 9 10 10 8 7 6 5 3 3 3 3 3 4 6 6 6 6 6 6 6 6 5 4 2 2 4 3 1 0 1 2 2 3 6 7 5 2 1
6 5 4 5 6 7 8 7 6 5 3 2 1 2 2 3 3 4 5 6 6 6 6 7 8 6 4 2 2 3 3 2 1 0 1 3 3 4 5 6 6 4 4
6 5 4 5 6 7 7 6 4 2 1 0 0 1 1 1 2 3 4 4 5 6 6 7 7 6 4 3 3 3 3 1 0 0 1 2 2 2 3 5 7 6 4
6 6 4 4 7 7 6 4 3 1 0 0 0 0 0 0 1 1 2 3 4 5 6 7 6 5 3 3 4 4 3 1 0 0 0 0 0 0 1 4 6 5 3
6 5 4 4 5 5 5 4 3 2 0 0 0 0 0 0 0 0 1 1 3 4 5 6 5 4 3 3 4 5 5 3 1 1 0 0 0 0 1 2 4 5 4
6 5 4 4 4 4 4 4 3 2 0 0 0 0 0 0 0 0 0 0 1 3 4 4 4 3 2 1 2 3 4 4 3 2 1 0 0 1 1 2 3 5 6
8 7 6 4 4 4 4 3 3 2 1 0 0 0 0 0 0 0 0 0 1 2 3 3 3 3 1 0 0 1 1 2 2 2 1 0 0 1 1 1 2 4 5
10 9 8 6 6 6 5 4 2 2 1 1 1 1 0 0 0 0 0 0 1 2 3 3 3 2 1 0 0 0 0 0 1 1 1 0 0 1 1 1 1 3 4
12 10 8 8 8 8 7 5 3 2 2 2 2 2 1 1 0 0 0 0 0 1 2 3 2 1 0 0 1 1 1 0 0 0 0 0 0 0 1 1 1 2 4
17 14 10 9 8 8 7 6 4 3 3 3 2 2 2 1 0 0 0 0 0 0 1 2 2 1 0 0 1 1 1 0 0 0 0 0 0 0 1 1 0 1 3
20 19 15 11 9 7 7 6 4 3 3 3 2 2 2 1 0 0 0 0 1 1 1 2 3 2 1 0 0 0 0 0 0 0 0 0 0 1 2 2 1 0 1
22 22 19 15 11 9 7 6 4 3 3 3 2 2 1 0 0 0 0 0 1 2 2 3 3 3 2 1 1 0 0 0 0 0 0 0 0 1 2 2 1 0 0
23 23 22 18 14 11 9 6 4 3 2 2 2 1 0 0 0 0 0 0 1 1 2 3 3 3 3 3 2 1 0 0 1 1 0 0 0 0 1 1 1 0 0
22 23 23 20 17 15 13 10 7 5 3 3 2 0 0 0 0 0 0 1 1 1 2 3 3 3 3 3 2 2 1 1 2 1 0 0 0 0 0 0 0 0 0
20 22 23 23 22 20 18 16 12 8 5 3 1 0 0 0 0 0 1 2 2 3 3 3 3 3 3 3 1 1 2 2 2 2 0 0 0 0 0 0 0 0 1
18 21 24 25 26 24 22 20 16 10 5 3 1 0 0 0 0 1 2 3 3 3 3 3 3 3 3 3 1 1 2 3 3 2 1 0 0 0 0 0 0 0 1
18 22 25 28 29 27 25 22 17 10 5 2 1 1 1 1 0 1 2 3 2 2 3 3 3 3 3 3 2 1 2 3 3 3 2 1 0 0 0 0 0 0 1
Wind_Speed
4 5 9 9 9 9 9 9 10 10 10 11 11 11 11 11 11 11 11 10 10 10 10 10 10 11 11 11 11 11 11 11 10 9 8 8 8 8 9 9 10 8 11
7 6 10 9 9 10 10 10 10 10 10 10 10 10 10 11 11 11 11 11 10 10 10 10 10 10 10 10 10 10 10 10 9 9 8 7 8 8 9 9 9 7 11
8 7 8 10 10 10 10 10 10 10 10 10 10 10 10 10 10 10 10 10 10 10 10 10 10 10 10 10 9 9 9 9 9 8 7 4 5 8 9 9 9 10 10
9 6 7 10 11 10 10 10 10 10 10 9 9 10 10 10 10 10 9 9 9 9 9 9 9 9 9 9 9 9 8 8 8 8 4 3 3 8 8 9 9 9 10
8 6 7 11 11 11 10 10 10 10 9 9 9 9 9 9 9 9 9 9 8 8 9 9 8 8 8 8 8 8 8 7 7 6 4 3 2 6 7 8 8 8 9
7 6 7 11 11 10 10 10 9 9 9 9 9 8 8 8 8 8 8 8 8 8 8 8 8 8 8 7 7 7 7 6 5 4 3 3 3 5 6 7 7 7 8
7 5 6 10 10 10 9 9 8 8 8 7 7 7 7 7 7 7 7 7 7 7 7 7 7 7 7 6 6 6 6 6 4 3 2 2 3 4 5 6 6 7 7
7 5 5 9 10 9 9 8 7 7 7 6 6 6 6 6 6 6 5 5 5 6 6 6 6 6 6 6 5 5 5 5 4 3 2 2 3 4 4 5 5 6 7
6 5 4 4 6 8 8 7 7 6 6 6 6 5 5 5 5 5 4 4 5 5 5 5 5 5 5 5 5 4 4 5 3 2 2 1 2 4 4 5 6 6 6
4 4 3 3 3 3 4 6 6 6 6 5 5 4 4 4 4 4 3 3 4 5 5 4 4 5 5 5 4 4 4 4 3 2 1 1 2 3 4 5 5 6 6
4 3 3 3 3 2 3 4 4 5 4 4 3 3 3 2 2 2 3 3 4 4 4 4 4 5 5 4 5 5 4 2 2 1 0 1 2 3 4 4 5 5 6
6 5 3 3 3 3 3 2 2 2 2 2 2 2 2 2 2 2 2 3 3 4 5 5 5 5 4 2 4 4 2 2 1 0 0 2 2 3 3 4 5 5 6
6 5 4 3 3 2 1 2 1 1 1 2 2 2 2 2 2 2 2 2 3 4 3 4 4 3 3 2 2 2 2 1 0 0 1 2 3 4 4 4 4 5 6
6 5 4 4 3 2 2 2 2 1 1 1 1 2 2 1 2 2 2 2 2 2 3 3 2 3 3 2 2 2 1 1 1 1 1 1 2 3 4 4 4 5 7
6 6 5 5 4 3 2 2 2 1 1 1 1 1 2 1 1 2 1 2 2 2 2 2 2 3 3 2 2 2 1 1 1 1 1 1 1 2 3 3 3 5 6
7 6 6 6 5 4 3 2 2 2 1 1 1 1 2 1 2 2 2 2 2 2 2 2 2 2 2 2 2 2 1 1 1 1 1 1 2 2 3 2 2 3 5
7 6 6 6 5 5 4 3 2 2 2 1 1 2 2 2 2 2 2 2 1 2 2 2 2 2 2 2 2 2 2 2 1 1 2 1 2 3 3 3 2 2 3
6 6 6 6 6 5 4 3 2 2 2 2 1 1 2 2 2 2 2 2 1 2 2 2 2 2 2 2 2 2 2 2 2 2 2 2 2 2 3 3 2 1 1
7 7 7 6 6 5 4 3 3 2 2 2 2 1 1 2 3 3 2 1 2 2 1 1 2 2 2 2 1 2 2 2 2 3 2 2 2 2 2 3 3 2 1
6 6 7 6 6 5 4 3 2 2 1 1 1 1 2 2 2 3 2 2 2 2 2 1 2 2 1 1 2 3 2 2 2 3 3 3 2 3 2 3 2 2 3
6 7 7 6 6 5 4 3 3 2 1 1 1 1 2 2 2 3 2 2 2 2 2 2 2 2 1 1 2 2 3 3 3 2 2 3 3 3 3 3 2 2 2
7 7 7 7 6 6 4 3 3 2 2 1 1 1 2 2 2 3 3 2 2 2 2 2 2 1 1 1 1 1 2 3 3 3 2 3 3 3 3 3 2 2 2
6 7 8 7 6 6 5 4 3 2 2 1 1 0 0 2 2 2 3 2 2 2 2 1 1 2 1 1 1 2 1 1 2 3 3 2 3 3 3 3 3 2 2
6 6 6 6 6 6 6 6 6 4 3 2 2 1 1 2 2 2 3 3 2 2 2 1 1 1 2 1 0 1 1 2 1 2 3 2 3 3 3 3 3 3 2
5 5 5 6 6 5 6 6 6 4 2 2 1 2 1 1 1 2 2 2 2 2 2 1 2 2 1 2 1 1 1 1 1 1 2 3 3 3 3 3 2 2 2
4 4 5 6 5 5 6 6 6 6 4 4 3 2 1 0 0 1 1 1 2 2 2 2 2 2 1 1 1 1 1 1 1 1 1 2 3 3 3 2 2 2 1
Wind_Direction
172 167 160 153 144 135 126 119 113 108 105 106 106 108 111 111 112 111 107 106 108 111 115 116 118 118 118 119 118 118 119 117 118 117 117 120 126 127 131 130 127 124 129
150 156 158 151 145 137 129 123 118 113 108 107 107 109 111 111 112 110 107 106 107 110 113 115 119 119 121 122 122 121 121 120 118 115 115 119 123 123 125 127 130 132 135
140 149 153 150 145 139 132 125 120 116 113 112 113 113 111 110 111 108 105 104 104 107 110 112 114 116 116 118 120 119 118 118 117 115 111 104 119 130 135 135 136 138 139
142 141 149 149 146 141 135 129 124 120 116 114 112 112 113 112 111 107 105 104 103 104 107 108 110 113 114 115 117 117 113 114 118 119 112 110 120 134 137 138 139 141 142
133 133 149 149 146 140 134 129 125 123 120 118 115 113 113 113 113 110 107 106 104 99 102 103 104 109 112 113 114 115 115 117 119 114 115 111 110 137 140 143 143 144 142
124 131 146 147 145 141 136 131 127 126 125 122 120 119 118 118 115 113 111 109 109 105 100 98 100 103 107 110 110 112 114 117 110 104 113 121 130 147 150 149 149 148 148
129 131 143 146 145 143 138 133 131 129 125 124 123 123 122 122 118 115 115 111 108 107 105 100 97 97 100 104 104 107 110 114 103 104 115 134 147 154 157 155 156 158 158
134 134 141 150 149 146 142 138 135 131 130 129 125 124 123 124 123 120 120 120 110 109 112 105 100 101 99 100 102 103 113 113 109 109 118 139 158 163 160 159 163 166 165
130 133 139 147 149 148 143 140 139 135 132 127 126 125 122 122 123 120 119 119 116 115 113 107 104 103 101 97 94 97 106 107 102 110 124 129 164 177 174 172 172 174 177
123 130 136 129 124 132 141 144 142 139 133 127 127 125 122 123 121 118 111 116 119 120 117 102 97 99 98 90 88 92 93 92 93 97 105 171 198 191 190 187 185 187 188
146 142 135 130 125 121 129 141 137 138 131 122 121 122 97 66 62 83 96 109 111 108 105 90 84 86 84 79 82 85 81 79 88 90 127 220 222 213 208 203 204 204 200
174 175 160 150 142 135 143 121 97 103 94 83 81 79 77 76 69 80 79 94 91 84 79 75 73 69 66 62 71 70 71 83 88 100 246 242 242 238 226 221 218 214 208
171 170 170 163 150 146 129 119 93 81 81 76 76 82 81 74 65 57 52 51 58 64 56 54 54 50 63 71 73 71 76 73 59 331 277 269 267 260 257 242 230 222 216
160 171 168 162 152 146 122 112 100 85 82 77 59 72 86 83 75 69 64 56 55 58 64 57 57 52 57 63 76 74 68 60 24 341 305 291 286 274 271 258 237 227 221
168 173 169 165 161 146 121 116 114 99 96 90 70 69 94 105 104 94 80 71 61 62 68 67 59 52 47 46 53 69 58 36 11 351 323 332 312 300 293 270 240 232 227
176 175 170 167 163 147 139 135 136 133 123 101 89 85 99 104 103 100 93 80 65 65 70 76 72 63 49 37 33 43 57 44 9 350 336 327 322 314 308 298 268 246 228
179 172 169 167 158 151 151 152 146 138 129 129 110 96 99 102 105 106 100 89 83 79 75 74 68 62 55 43 28 19 28 27 17 358 344 338 335 337 331 323 302 277 238
170 169 171 167 158 155 154 152 141 138 130 121 114 105 103 106 111 107 101 96 98 89 78 78 71 65 51 42 26 9 13 13 8 356 352 350 346 337 330 341 346 334 248
172 167 162 157 159 162 155 144 133 125 126 122 116 116 118 114 111 111 105 97 99 94 80 85 73 80 70 45 28 20 17 10 356 355 357 349 345 347 342 357 10 2 333
164 160 158 153 156 152 141 125 109 98 98 97 115 134 132 124 120 116 114 106 105 102 84 83 86 66 74 62 46 33 15 7 9 0 349 353 351 348 353 355 356 2 1
156 157 159 157 159 153 154 153 150 157 147 120 124 132 138 133 128 125 121 112 104 109 116 115 106 83 51 37 53 16 359 12 17 5 359 2 358 352 4 8 6 1 359
166 167 166 166 164 166 165 161 154 144 140 144 121 104 127 135 138 145 137 136 127 117 103 103 105 105 56 41 91 68 3 351 354 359 3 5 355 355 359 356 357 353 351
170 176 175 171 165 163 146 129 112 90 77 84 82 109 134 137 133 136 142 138 134 132 136 136 133 133 138 36 63 121 128 259 317 330 351 0 355 354 349 351 352 350 359
182 174 168 166 161 157 148 151 152 158 166 184 181 171 124 123 132 136 142 142 139 133 138 158 140 134 134 137 38 57 128 161 162 322 329 347 353 352 345 339 341 349 359
174 166 165 160 160 157 156 158 157 157 157 137 125 122 116 101 117 133 142 147 149 151 155 144 128 130 139 148 152 128 88 69 110 159 304 326 338 334 335 330 334 337 338
158 159 157 159 161 159 159 159 160 159 151 140 146 158 163 148 146 123 135 139 158 160 162 156 147 147 158 151 153 144 148 156 172 165 222 295 310 312 324 330 340 329 320